Location: Sternwarte ZA, Rosenfeld-Brittheim
(48.2889°N, 8.6789°E)
Time: 17:43:36
(UTC+02:00)

ISS - Pass Details

Date: 16 September 2018
Orbit: 403 x 408 km, 51.6° (Epoch: 23 September)

Event Time Altitude Azimuth Distance (km) Brightness Sun altitude
Exits shadow 04:10:54 13° 98° (E) 1,288 -0.8 -27.0°
Drops below altitude 10° 04:11:20 10° 99° (E) 1,461 -0.5 -26.9°
Sets 04:13:25 0° 103° (ESE) 2,318 0.5 -26.7°
